SCP
0 0 0 0 0 0 0 0 0 0 0 0 0 0 0 0 0 0 0 0 0 0 0 0 0 0 0 0 0 0 0 0 0 0 0 0 0 0 0 0 0 0 0 0 0 0 0 0 0 0 0 0 0 0
0 0 0 0 0 0 0 0 0 0 0 0 0 0 0 0 0 0 0 0 0 0 0 0 0 0 0 0 0 0 0 0 0 0 0 0 0 0 0 0 0 0 0 0 0 0 0 0 0 0 0 0 0 0
0 0 0 0 0 0 0 0 0 0 0 0 0 0 0 0 0 0 0 0 0 0 0 0 0 0 0 0 0 0 0 0 0 0 0 0 0 0 0 0 0 0 0 0 0 0 0 0 0 0 0 0 0 0
0 0 0 0 0 0 0 0 0 0 0 0 0 0 0 0 0 0 0 0 0 0 0 0 0 0 0 0 0 0 0 0 0 0 0 0 0 0 0 0 0 0 0 0 0 0 0 0 0 0 0 0 0 0
0 0 0 0 0 0 0 0 0 0 0 0 0 0 0 0 0 0 0 0 0 0 0 0 0 0 0 0 0 0 0 0 0 0 0 0 0 0 0 0 0 0 0 0 0 0 0 0 0 0 0 0 0 0
0 0 0 0 0 0 0 0 0 0 0 0 0 0 0 0 0 0 0 0 0 0 0 0 0 0 0 0 0 0 0 0 0 0 0 0 0 0 0 0 0 0 0 0 0 0 0 0 0 0 0 0 0 0
0 0 0 0 0 0 0 0 0 0 0 0 0 0 0 0 0 0 0 0 0 0 0 0 0 0 0 0 0 0 0 0 0 0 0 0 0 0 0 0 0 0 0 0 0 0 0 0 0 0 0 0 0 0
0 0 0 0 0 0 0 0 0 0 0 0 0 0 0 0 0 0 0 0 0 0 0 0 0 0 0 0 0 0 0 0 0 0 0 0 0 0 0 0 0 0 0 0 0 0 0 0 0 0 0 0 0 0
0 0 0 0 0 0 0 0 0 0 0 0 0 0 0 0 0 0 0 0 0 0 0 0 0 0 0 0 0 0 0 0 0 0 0 0 0 0 0 0 0 0 0 0 0 0 0 0 0 0 0 0 0 0
0 0 0 0 0 0 0 0 0 0 0 0 0 0 0 0 0 0 0 0 0 0 0 0 0 0 0 0 0 0 0 0 0 0 0 0 0 0 0 0 0 0 0 0 0 0 0 0 0 0 0 0 0 0
0 0 0 0 0 0 0 0 0 0 0 0 0 0 0 0 0 0 0 0 0 0 0 0 0 0 0 0 0 0 0 0 0 0 0 0 0 0 0 0 0 0 0 0 0 0 0 0 0 0 0 0 0 0
0 -0 0 0 0 0 0 0 0 0 0 0 0 0 0 0 0 0 0 0 0 0 0 0 0 0 0 0 0 0 0 0 0 0 0 0 0 0 0 0 0 0 0 0 0 0 0 0 0 0 0 0 0 0
0 0 -0 -0 0 0 0 0 0 0 0 0 0 0 0 0 0 0 0 0 0 0 0 0 0 0 0 0 0 0 0 0 0 0 0 0 0 0 0 0 0 0 0 0 0 0 0 0 0 0 0 0 0 0
-0 -0 -0 -0 0 0 0 0 0 0 0 0 0 0 0 0 0 0 0 0 0 0 0 0 0 0 0 0 0 0 0 0 0 0 0 0 0 0 0 0 0 0 0 0 0 0 0 0 0 0 0 0 0 0
0 0 0 0 0 0 0 0 0 0 0 0 0 0 0 0 0 0 0 0 0 0 0 0 0 0 0 0 0 0 0 0 0 0 0 0 0 0 0 0 0 0 0 0 0 0 0 0 0 0 0 0 -0 -0
0 0 0 0 0 0 0 0 0 0 0 0 0 0 0 0 0 0 0 0 0 0 0 0 0 0 0 0 0 0 0 0 0 0 0 0 0 0 0 0 0 0 0 0 0 0 0 0 0 0 0 -0 -0 -0
0 0 0 0 0 0 0 0 0 0 0 0 0 0 0 0 0 0 0 0 0 0 0 0 0 0 0 0 0 0 0 0 0 0 0 0 0 0 0 0 0 0 0 0 0 0 0 0 0 0 -0 -0 -0 -0
0 0 0 0 0 0 0 0 0 0 0 0 0 0 0 0 0 0 0 0 0 0 0 0 0 0 0 0 0 0 0 0 0 0 0 0 0 0 0 0 0 0 0 0 0 0 0 0 0 -0 -0 -0 0 0
0 0 0 0 0 0 0 0 0 0 0 0 0 0 0 0 0 0 0 0 0 0 0 0 0 0 0 0 0 0 0 0 0 0 0 0 0 0 0 0 0 0 0 0 0 0 0 -0 -0 -0 0 0 0 0
0 -0 -0 0 0 0 0 0 0 0 0 0 0 0 0 0 0 0 0 0 0 0 0 0 0 0 0 0 0 0 0 0 0 0 0 0 0 0 0 0 0 0 0 0 0 -0 -0 0 0 0 0 0 0 0
0 0 0 0 0 0 0 0 0 0 0 0 0 0 0 0 0 0 0 0 0 0 0 0 0 0 0 0 0 0 0 0 0 0 0 0 0 0 0 0 0 0 0 0 0 0 0 0 0 0 0 0 0 0
0 0 0 0 0 0 0 0 0 0 0 0 0 0 0 0 0 0 0 0 0 0 0 0 0 0 0 0 0 0 0 0 0 0 0 0 0 0 0 0 0 0 0 0 0 0 0 0 0 0 0 0 0 0
0 0 0 0 0 0 0 0 0 0 0 0 0 0 0 0 0 0 0 0 0 0 0 0 0 0 0 0 0 0 0 0 0 0 0 0 0 0 0 0 0 0 0 0 0 0 0 0 0 0 0 0 0 0
-0 0 0 0 0 0 0 0 0 0 0 0 0 0 0 0 0 0 0 0 0 0 0 0 0 0 0 0 0 0 0 0 0 0 0 0 0 0 0 0 0 0 0 0 0 0 0 0 0 0 0 0 0 0
0 -0 0 0 0 0 0 0 0 0 0 0 0 0 0 0 0 0 0 0 0 0 0 0 0 0 0 0 0 0 0 0 0 0 0 0 0 0 0 0 -0 -0 -0 0 0 0 0 0 0 0 0 0 0 0
-0 -0 0 0 0 0 0 0 0 0 0 0 0 0 0 0 0 0 0 0 0 0 0 0 0 0 -0 -0 0 0 0 -0 0 0 0 0 0 0 0 0 0 -0 -0 -0 -0 0 0 0 0 0 0 0 0 0
-0 -0 0 0 0 0 0 0 0 0 0 0 0 0 0 0 0 0 0 0 0 -0 -0 0 0 -0 -0 -0 0 0 0 0 0 -0 0 0 0 -0 -0 -0 -0 -0 -0 -0 0 0 0 0 0 0 0 0 0 0
-0 0 0 -0 0 0 0 0 0 0 0 0 0 0 0 0 0 0 0 0 0 0 0 0 -0 -0 -0 0 0 0 0 -0 -0 0 -0 -0 -0 -0 -0 -0 -0 -0 -0 0 0 0 0 0 0 0 0 0 0 0
0 0 0 0 -0 -0 -0 -0 -0 0 0 0 0 0 0 0 0 0 0 0 0 -0 -0 -0 0 0 0 0 0 0 0 0 0 0 0 0 0 0 0 0 0 0 0 0 0 0 0 0 0 0 0 0 0 0
-0 0 -0 -0 -0 -0 -0 -0 -0 0 0 0 0 -0 -0 -0 0 0 0 0 0 0 0 0 0 0 0 0 0 0 0 0 0 0 0 0 0 0 0 0 0 0 0 0 0 0 0 0 0 0 0 0 0 0
0 -0 0 -0 -0 -0 -0 -0 -0 -0 -0 -0 -0 -0 -0 0 0 0 0 0 0 0 0 0 0 0 0 0 0 0 0 0 0 0 0 0 0 0 0 0 0 0 0 0 0 0 0 0 0 0 0 0 0 0
0 -0 -0 -0 0 -0 0 -0 0 0 -0 0 0 -0 -0 -0 0 0 0 0 0 0 0 0 0 0 0 0 0 0 0 0 0 0 0 0 0 0 0 0 0 0 0 0 0 0 0 0 0 0 0 0 0 0
-0 -0 -0 -0 -0 -0 0 0 0 0 0 0 0 0 0 0 0 0 0 0 0 0 0 0 0 0 0 0 0 0 0 0 0 0 0 0 0 0 0 0 0 0 0 0 0 0 0 0 0 0 0 0 0 0
Wind_Speed_500mb
59 58 57 57 55 54 54 57 55 53 49 42 51 49 47 53 54 52 64 61 63 23 48 40 46 46 24 24 8 8 3 7 4 6 7 7 7 9 1 6 8 10 8 7 5 4 15 12 5 8 12 34 35 34
63 64 65 58 61 60 61 58 55 57 55 53 55 48 49 59 59 53 65 65 56 58 29 16 46 67 56 51 38 31 22 14 15 4 4 3 5 2 8 13 7 6 12 8 16 14 13 20 37 73 56 45 53 49
64 67 67 65 66 63 62 59 56 61 61 55 49 52 53 52 55 60 64 61 56 55 48 53 62 80 75 69 53 44 41 37 36 46 15 8 14 8 12 12 13 13 25 20 27 32 33 62 75 58 66 69 73 66
69 68 67 66 68 66 66 65 65 62 59 59 54 52 53 57 58 54 59 62 70 27 12 32 48 53 54 46 49 68 87 45 39 40 23 10 12 19 14 16 20 18 10 12 30 34 44 59 64 66 58 60 60 53
70 70 70 72 69 66 67 67 65 65 64 58 54 49 54 55 53 51 52 64 67 51 5 9 26 36 30 34 48 58 67 65 45 26 13 16 19 18 15 14 23 33 36 21 25 51 40 54 72 55 47 41 35 44
68 66 66 65 66 67 69 70 66 65 66 65 64 57 53 47 46 43 40 67 73 67 22 7 24 40 49 61 62 56 50 60 46 20 17 36 57 21 13 14 14 33 50 65 48 69 66 65 51 45 34 33 34 36
62 62 64 64 64 65 65 65 65 65 64 64 64 62 58 50 46 52 16 5 19 48 27 7 6 20 49 50 52 64 66 43 42 41 33 49 38 26 13 26 34 52 61 52 53 55 48 31 21 27 29 37 45 51
57 57 58 59 60 60 61 62 63 64 62 60 60 62 62 51 47 54 66 62 42 35 20 6 6 3 24 17 18 31 23 28 25 26 16 13 13 16 15 25 57 51 47 35 30 28 30 32 30 30 35 43 52 58
53 55 57 58 59 59 57 56 58 62 58 57 54 49 49 56 50 57 51 45 54 50 8 10 9 8 23 18 16 15 18 7 15 10 10 15 12 15 13 39 37 31 16 17 21 21 23 24 29 34 40 45 53 63
52 49 49 52 55 56 56 56 54 54 55 50 49 35 18 25 51 30 19 16 39 28 31 7 19 5 28 23 10 4 15 7 8 12 11 10 23 36 24 23 16 16 17 19 17 14 26 32 35 40 45 49 56 66
45 50 51 52 51 52 52 52 56 56 55 58 31 24 20 24 34 21 17 13 13 6 10 11 34 6 21 6 11 20 6 5 7 9 11 6 7 8 20 19 17 15 14 16 17 21 26 34 43 50 55 57 62 66
50 47 42 42 46 47 47 47 46 49 45 53 40 27 32 22 17 11 8 5 7 12 9 9 19 34 16 21 6 9 8 3 11 6 3 5 5 9 10 9 10 11 13 16 20 25 30 36 41 49 55 60 62 63
51 52 51 48 44 41 45 45 43 45 38 56 23 23 19 14 13 15 16 6 2 6 18 17 7 19 17 22 5 5 8 10 7 4 6 8 8 8 6 4 6 11 15 20 23 29 36 42 44 48 56 55 57 60
52 51 51 49 47 40 38 40 43 47 40 23 17 14 12 10 10 9 10 11 14 16 39 25 8 7 9 4 5 7 4 7 3 4 10 4 13 6 1 7 10 14 20 27 32 37 42 45 49 49 48 48 50 53
52 49 42 42 45 43 39 37 38 46 21 18 16 13 9 8 9 14 21 18 20 21 29 10 6 10 3 5 6 4 3 7 10 11 4 11 5 4 8 12 18 23 29 33 37 42 45 47 48 50 42 40 38 40
26 34 39 35 33 36 41 41 42 46 14 12 5 8 9 8 5 8 19 13 22 34 25 9 6 5 7 6 6 13 11 13 8 4 10 5 4 9 13 16 21 27 32 37 39 40 42 40 41 42 38 32 32 33
8 14 19 28 30 25 27 41 38 17 6 6 4 12 8 14 12 16 16 19 34 29 6 5 13 14 5 3 6 8 10 5 7 9 5 5 11 13 17 20 24 28 31 32 34 32 32 30 30 29 31 29 27 22
13 13 14 16 25 26 20 14 13 8 10 9 4 5 9 12 16 12 19 30 22 15 16 8 14 5 10 11 8 5 6 12 6 5 2 8 10 12 18 23 24 25 26 27 27 27 26 25 24 24 25 24 19 14
1 12 15 18 21 20 6 4 7 8 7 7 15 13 11 12 11 14 19 30 18 14 19 8 6 7 7 3 6 10 14 8 5 2 3 3 7 10 13 16 18 19 21 23 22 22 22 19 19 19 18 17 15 14
10 9 5 36 38 13 8 9 7 11 5 8 12 11 12 11 12 15 15 17 17 11 4 3 6 3 5 11 10 7 5 4 3 2 7 4 3 6 12 15 17 18 17 18 18 20 21 18 16 15 14 15 14 15
5 5 1 20 13 15 13 9 9 8 14 10 14 8 10 14 7 4 4 10 5 5 2 7 11 16 10 6 3 2 3 3 2 2 5 8 4 8 12 14 15 17 21 24 27 29 29 30 27 23 20 17 17 17
9 6 6 11 10 10 14 13 13 10 9 10 7 6 7 3 3 3 2 1 2 5 7 10 14 9 8 8 7 7 6 7 7 7 9 8 6 4 8 13 14 16 20 23 25 27 29 29 28 26 23 22 20 20
13 7 7 9 10 11 6 7 7 7 4 4 5 5 4 2 4 4 3 2 0 5 12 15 14 14 14 13 13 12 12 12 11 10 8 5 2 4 7 10 11 15 15 17 19 21 23 23 23 24 24 23 22 21
11 8 13 12 16 4 4 9 7 7 6 4 3 5 4 3 8 7 2 6 6 17 19 18 19 21 18 16 16 15 13 11 9 6 3 1 3 5 7 9 11 12 17 17 18 19 19 20 21 21 21 21 22 23
7 20 14 12 14 9 10 7 9 7 4 4 7 3 4 3 4 1 5 4 20 30 27 25 22 19 16 18 17 13 9 6 5 7 9 10 8 7 8 10 11 10 12 13 15 17 19 20 22 24 25 25 25 26
15 17 10 2 9 7 1 5 3 4 4 4 1 3 1 5 4 8 6 6 17 32 30 28 28 25 22 18 13 9 7 6 6 7 8 8 9 11 11 9 8 8 10 15 18 20 22 24 26 27 27 29 30 29
10 8 11 14 5 6 8 7 5 5 5 5 4 2 5 3 7 6 2 8 12 20 22 22 21 18 11 12 10 7 6 6 8 9 11 11 11 10 10 8 7 8 12 17 22 26 28 30 31 32 32 30 33 36
9 13 6 13 8 8 7 4 4 2 3 3 4 2 10 12 7 1 2 12 16 24 27 25 22 20 16 12 7 4 5 7 8 7 8 7 6 6 4 5 8 13 18 22 25 28 30 33 36 38 39 39 38 38
9 14 9 8 6 7 3 4 4 2 4 3 5 3 6 5 3 2 3 13 17 23 24 23 22 19 14 10 7 3 4 6 7 7 7 6 6 6 9 13 17 22 27 29 27 30 32 35 38 44 46 48 46 44
11 17 5 3 4 2 3 2 2 1 3 5 7 9 9 7 6 8 10 12 18 18 19 21 21 18 14 13 10 9 9 11 11 12 13 11 13 17 18 20 23 26 31 32 33 33 36 41 43 46 47 48 47 47
13 9 4 3 2 2 3 7 11 12 9 6 11 10 11 11 6 3 8 15 21 25 26 25 23 19 15 12 11 13 11 12 11 13 18 21 22 21 22 24 27 31 35 40 45 49 53 56 56 58 57 56 54 54
12 7 2 5 5 6 7 9 4 3 3 4 4 5 6 8 5 5 8 4 14 18 17 18 15 9 12 14 16 15 15 15 16 20 22 24 25 27 30 32 35 40 45 53 58 61 62 63 64 63 63 62 60 58
6 7 5 6 4 4 10 15 7 7 3 3 3 6 6 5 3 10 11 10 2 8 14 15 14 12 11 10 10 11 14 16 20 26 31 37 42 44 48 52 57 63 67 69 67 63 61 60 61 61 60 59 57 53
Wind_Direction_500mb
256 255 253 256 255 252 252 254 252 256 256 256 244 251 255 250 245 240 243 242 230 243 256 247 248 235 230 216 164 206 30 263 67 181 152 227 190 226 139 236 199 176 164 225 74 37 289 199 321 172 239 293 278 268
256 253 251 255 250 254 253 248 247 250 250 246 247 244 247 247 252 245 244 243 242 236 250 245 245 243 243 251 248 220 222 172 186 106 232 87 269 14 182 243 167 270 199 199 185 222 245 277 273 285 288 283 283 277
259 257 257 252 252 247 252 254 255 255 256 253 255 261 260 252 251 248 248 247 225 230 247 250 253 262 260 245 239 237 245 233 230 234 200 213 233 140 246 236 257 244 239 246 262 260 258 266 276 278 292 287 290 289
258 257 257 256 256 256 253 251 251 251 253 251 250 250 257 254 256 252 246 255 237 225 231 247 256 242 261 258 247 240 247 241 251 234 224 214 236 199 246 250 236 235 181 226 253 266 268 270 268 277 283 289 286 275
260 258 255 255 256 257 257 257 255 250 249 248 247 251 251 253 258 255 250 252 254 235 254 234 249 249 250 244 249 247 240 242 239 241 229 246 247 244 240 245 244 239 247 243 253 260 273 274 279 287 288 281 264 271
262 259 255 254 255 257 258 257 255 253 251 251 249 244 250 251 249 252 263 255 248 245 249 224 259 249 252 249 242 237 237 241 225 227 242 244 238 215 254 244 245 245 238 240 247 265 272 274 280 284 281 282 284 287
260 258 257 256 256 258 258 257 254 251 251 248 247 240 243 245 238 232 237 239 224 226 236 250 252 241 244 236 232 235 238 231 230 243 241 249 246 226 240 254 269 258 252 261 266 264 271 276 275 283 288 293 296 301
259 258 257 256 256 257 256 254 253 249 247 247 244 243 233 237 243 244 244 255 240 213 224 230 251 326 199 187 203 214 205 207 220 228 234 230 229 225 250 255 255 259 257 254 249 263 265 277 287 291 295 301 303 306
261 259 259 257 255 255 254 253 249 248 243 240 245 238 233 227 228 241 252 257 254 238 212 206 164 236 185 201 199 188 197 205 223 214 217 211 223 225 216 242 251 245 237 252 274 279 278 286 296 301 305 309 312 315
267 263 260 257 253 251 251 252 247 247 235 236 224 215 208 202 230 229 215 222 208 213 213 201 188 222 180 175 189 173 201 220 208 229 184 215 238 239 224 237 238 252 260 275 295 273 291 296 305 307 310 314 315 316
264 263 262 260 255 250 247 248 241 236 227 215 204 193 182 178 176 185 204 204 192 216 218 184 193 151 202 140 206 211 198 215 212 248 191 206 260 188 214 215 232 251 272 289 290 293 298 300 306 309 310 313 316 317
266 263 260 258 256 254 250 241 224 226 235 207 203 167 171 181 184 191 183 180 193 210 193 163 193 201 199 198 164 197 205 85 233 115 229 245 239 145 178 202 222 253 274 282 293 298 299 298 301 302 306 311 313 314
261 259 257 253 255 251 243 244 231 225 236 191 191 156 173 181 194 184 173 227 290 196 185 182 190 177 177 197 200 167 202 218 102 192 223 227 122 149 177 219 256 280 289 296 297 297 299 301 304 307 310 314 315 315
260 257 254 247 243 242 233 229 227 221 218 202 178 178 183 174 207 177 169 177 202 188 184 174 130 157 164 156 211 228 169 146 212 234 236 205 162 154 220 287 289 295 303 307 309 308 308 309 310 312 315 315 314 315
254 251 252 239 235 235 228 229 226 222 228 213 162 188 179 159 97 162 169 164 185 194 161 114 86 160 187 222 208 101 185 244 199 225 214 154 156 282 302 310 316 316 313 313 314 312 312 314 314 313 318 315 313 314
236 236 228 226 229 225 226 224 226 227 221 220 134 103 86 87 340 168 184 179 178 164 147 126 135 140 217 190 164 214 149 220 241 194 142 191 272 308 311 316 319 318 317 316 314 312 312 315 315 315 319 320 319 321
236 235 228 227 225 229 222 213 213 199 144 91 89 103 105 113 147 159 163 167 171 159 178 141 182 202 84 76 253 193 207 221 170 153 177 293 315 321 317 321 322 318 317 316 314 315 314 316 312 315 322 331 329 325
236 241 226 217 206 208 208 174 158 108 67 45 104 24 89 95 118 153 159 166 169 191 167 194 129 133 187 184 249 220 170 168 181 186 287 307 317 320 319 323 329 327 327 326 323 323 320 321 325 331 333 336 339 347
55 238 224 216 201 191 179 24 44 94 80 76 92 94 82 96 114 152 159 170 180 167 149 123 131 196 216 158 173 166 170 182 173 221 301 307 328 331 336 341 345 348 346 341 341 340 342 337 332 334 340 349 355 5
320 315 228 190 194 156 94 57 64 89 99 122 113 110 99 93 109 122 138 149 148 157 127 140 204 153 119 141 129 139 178 196 241 59 149 123 32 15 8 15 18 16 17 22 18 17 19 24 19 15 14 11 15 22
288 287 301 171 97 92 93 87 64 80 112 92 112 90 85 113 111 112 107 142 206 99 141 147 140 134 126 143 159 171 197 202 182 145 139 141 96 59 43 37 32 29 33 34 35 35 33 30 27 29 34 39 39 39
179 162 108 74 83 78 81 61 99 94 81 107 89 86 80 84 54 33 136 334 109 119 115 135 143 139 148 145 155 149 130 125 119 122 124 133 119 80 42 36 29 28 27 29 29 31 32 32 33 36 40 41 39 38
149 139 74 64 86 60 52 74 79 51 104 111 124 115 47 37 6 38 50 338 80 167 155 151 154 153 149 143 135 126 125 130 128 128 130 124 83 10 356 352 358 10 14 14 15 20 21 23 26 29 32 33 34 34
117 65 38 45 42 84 75 40 61 75 80 52 62 71 352 306 2 43 267 273 190 171 169 166 166 160 151 144 136 133 132 129 125 131 132 101 328 324 332 339 348 350 1 4 7 9 9 12 13 12 13 13 11 12
93 12 19 11 27 51 42 26 7 51 73 348 76 7 291 348 70 90 229 247 186 185 179 176 173 166 158 159 162 160 164 180 217 244 259 269 286 310 330 335 338 343 353 7 10 14 15 14 14 12 10 8 7 4
67 5 42 293 345 77 184 76 45 162 132 77 168 275 13 89 82 245 232 196 193 190 186 181 174 173 177 176 185 202 216 234 264 287 282 271 277 287 301 310 328 347 9 13 13 11 9 8 6 4 4 0 357 354
62 342 21 32 32 94 71 63 101 90 87 132 215 82 78 107 250 256 286 185 176 181 175 174 176 175 181 194 198 214 250 279 295 293 299 299 293 290 280 284 311 329 342 345 347 347 348 349 348 347 346 348 344 340
74 28 68 341 26 33 121 64 58 99 227 184 122 148 159 186 229 1 194 180 167 170 173 174 177 186 191 194 212 252 300 310 318 316 319 320 304 300 293 302 317 324 327 330 332 334 335 337 339 338 339 338 339 335
39 357 355 12 17 44 77 132 199 91 132 179 135 251 256 254 255 247 199 186 185 181 184 188 191 193 198 206 217 263 294 317 325 336 339 338 339 331 327 321 319 317 316 319 323 323 326 328 332 334 336 333 332 328
3 0 34 38 73 346 350 45 54 138 237 264 284 287 278 275 277 268 253 207 193 199 196 193 200 207 217 231 246 268 292 303 305 305 307 312 312 316 316 312 309 308 307 309 311 312 313 313 314 315 316 318 320 319
344 339 339 27 221 32 336 314 294 279 264 268 254 260 282 304 340 11 227 210 197 200 209 214 220 227 239 256 279 283 285 288 300 303 302 304 307 309 307 305 306 306 305 305 305 305 306 306 308 309 310 311 312 312
339 18 37 359 319 341 332 343 301 283 252 261 261 287 305 311 314 59 25 222 222 224 226 230 235 249 258 253 262 279 289 290 290 291 298 305 309 308 304 304 305 305 307 309 308 305 302 301 301 302 303 304 305 306
317 339 337 325 335 6 351 345 17 347 277 303 342 337 334 329 271 30 30 18 15 192 205 209 214 227 254 282 299 307 309 308 305 305 303 302 301 301 300 298 298 299 300 302 304 303 300 298 298 299 299 301 303 304
Wind_Speed_850mb
59 58 57 57 55 54 54 57 55 53 49 42 51 49 47 53 54 52 64 61 63 23 48 40 46 46 24 24 8 8 3 7 4 6 7 7 7 9 1 6 8 10 8 7 5 4 15 12 5 8 12 34 35 34
63 64 65 58 61 60 61 58 55 57 55 53 55 48 49 59 59 53 65 65 56 58 29 16 46 67 56 51 38 31 22 14 15 4 4 3 5 2 8 13 7 6 12 8 16 14 13 20 37 73 56 45 53 49
64 67 67 65 66 63 62 59 56 61 61 55 49 52 53 52 55 60 64 61 56 55 48 53 62 80 75 69 53 44 41 37 36 46 15 8 14 8 12 12 13 13 25 20 27 32 33 62 75 58 66 69 73 66
69 68 67 66 68 66 66 65 65 62 59 59 54 52 53 57 58 54 59 62 70 27 12 32 48 53 54 46 49 68 87 45 39 40 23 10 12 19 14 16 20 18 10 12 30 34 44 59 64 66 58 60 60 53
70 70 70 72 69 66 67 67 65 65 64 58 54 49 54 55 53 51 52 64 67 51 5 9 26 36 30 34 48 58 67 65 45 26 13 16 19 18 15 14 23 33 36 21 25 51 40 54 72 55 47 41 35 44
68 66 66 65 66 67 69 70 66 65 66 65 64 57 53 47 46 43 40 67 73 67 22 7 24 40 49 61 62 56 50 60 46 20 17 36 57 21 13 14 14 33 50 65 48 69 66 65 51 45 34 33 34 36
62 62 64 64 64 65 65 65 65 65 64 64 64 62 58 50 46 52 16 5 19 48 27 7 6 20 49 50 52 64 66 43 42 41 33 49 38 26 13 26 34 52 61 52 53 55 48 31 21 27 29 37 45 51
57 57 58 59 60 60 61 62 63 64 62 60 60 62 62 51 47 54 66 62 42 35 20 6 6 3 24 17 18 31 23 28 25 26 16 13 13 16 15 25 57 51 47 35 30 28 30 32 30 30 35 43 52 58
53 55 57 58 59 59 57 56 58 62 58 57 54 49 49 56 50 57 51 45 54 50 8 10 9 8 23 18 16 15 18 7 15 10 10 15 12 15 13 39 37 31 16 17 21 21 23 24 29 34 40 45 53 63
52 49 49 52 55 56 56 56 54 54 55 50 49 35 18 25 51 30 19 16 39 28 31 7 19 5 28 23 10 4 15 7 8 12 11 10 23 36 24 23 16 16 17 19 17 14 26 32 35 40 45 49 56 66
45 50 51 52 51 52 52 52 56 56 55 58 31 24 20 24 34 21 17 13 13 6 10 11 34 6 21 6 11 20 6 5 7 9 11 6 7 8 20 19 17 15 14 16 17 21 26 34 43 50 55 57 62 66
50 47 42 42 46 47 47 47 46 49 45 53 40 27 32 22 17 11 8 5 7 12 9 9 19 34 16 21 6 9 8 3 11 6 3 5 5 9 10 9 10 11 13 16 20 25 30 36 41 49 55 60 62 63
51 52 51 48 44 41 45 45 43 45 38 56 23 23 19 14 13 15 16 6 2 6 18 17 7 19 17 22 5 5 8 10 7 4 6 8 8 8 6 4 6 11 15 20 23 29 36 42 44 48 56 55 57 60
52 51 51 49 47 40 38 40 43 47 40 23 17 14 12 10 10 9 10 11 14 16 39 25 8 7 9 4 5 7 4 7 3 4 10 4 13 6 1 7 10 14 20 27 32 37 42 45 49 49 48 48 50 53
52 49 42 42 45 43 39 37 38 46 21 18 16 13 9 8 9 14 21 18 20 21 29 10 6 10 3 5 6 4 3 7 10 11 4 11 5 4 8 12 18 23 29 33 37 42 45 47 48 50 42 40 38 40
26 34 39 35 33 36 41 41 42 46 14 12 5 8 9 8 5 8 19 13 22 34 25 9 6 5 7 6 6 13 11 13 8 4 10 5 4 9 13 16 21 27 32 37 39 40 42 40 41 42 38 32 32 33
8 14 19 28 30 25 27 41 38 17 6 6 4 12 8 14 12 16 16 19 34 29 6 5 13 14 5 3 6 8 10 5 7 9 5 5 11 13 17 20 24 28 31 32 34 32 32 30 30 29 31 29 27 22
13 13 14 16 25 26 20 14 13 8 10 9 4 5 9 12 16 12 19 30 22 15 16 8 14 5 10 11 8 5 6 12 6 5 2 8 10 12 18 23 24 25 26 27 27 27 26 25 24 24 25 24 19 14
1 12 15 18 21 20 6 4 7 8 7 7 15 13 11 12 11 14 19 30 18 14 19 8 6 7 7 3 6 10 14 8 5 2 3 3 7 10 13 16 18 19 21 23 22 22 22 19 19 19 18 17 15 14
10 9 5 36 38 13 8 9 7 11 5 8 12 11 12 11 12 15 15 17 17 11 4 3 6 3 5 11 10 7 5 4 3 2 7 4 3 6 12 15 17 18 17 18 18 20 21 18 16 15 14 15 14 15
5 5 1 20 13 15 13 9 9 8 14 10 14 8 10 14 7 4 4 10 5 5 2 7 11 16 10 6 3 2 3 3 2 2 5 8 4 8 12 14 15 17 21 24 27 29 29 30 27 23 20 17 17 17
9 6 6 11 10 10 14 13 13 10 9 10 7 6 7 3 3 3 2 1 2 5 7 10 14 9 8 8 7 7 6 7 7 7 9 8 6 4 8 13 14 16 20 23 25 27 29 29 28 26 23 22 20 20
13 7 7 9 10 11 6 7 7 7 4 4 5 5 4 2 4 4 3 2 0 5 12 15 14 14 14 13 13 12 12 12 11 10 8 5 2 4 7 10 11 15 15 17 19 21 23 23 23 24 24 23 22 21
11 8 13 12 16 4 4 9 7 7 6 4 3 5 4 3 8 7 2 6 6 17 19 18 19 21 18 16 16 15 13 11 9 6 3 1 3 5 7 9 11 12 17 17 18 19 19 20 21 21 21 21 22 23
7 20 14 12 14 9 10 7 9 7 4 4 7 3 4 3 4 1 5 4 20 30 27 25 22 19 16 18 17 13 9 6 5 7 9 10 8 7 8 10 11 10 12 13 15 17 19 20 22 24 25 25 25 26
15 17 10 2 9 7 1 5 3 4 4 4 1 3 1 5 4 8 6 6 17 32 30 28 28 25 22 18 13 9 7 6 6 7 8 8 9 11 11 9 8 8 10 15 18 20 22 24 26 27 27 29 30 29
10 8 11 14 5 6 8 7 5 5 5 5 4 2 5 3 7 6 2 8 12 20 22 22 21 18 11 12 10 7 6 6 8 9 11 11 11 10 10 8 7 8 12 17 22 26 28 30 31 32 32 30 33 36
9 13 6 13 8 8 7 4 4 2 3 3 4 2 10 12 7 1 2 12 16 24 27 25 22 20 16 12 7 4 5 7 8 7 8 7 6 6 4 5 8 13 18 22 25 28 30 33 36 38 39 39 38 38
9 14 9 8 6 7 3 4 4 2 4 3 5 3 6 5 3 2 3 13 17 23 24 23 22 19 14 10 7 3 4 6 7 7 7 6 6 6 9 13 17 22 27 29 27 30 32 35 38 44 46 48 46 44
11 17 5 3 4 2 3 2 2 1 3 5 7 9 9 7 6 8 10 12 18 18 19 21 21 18 14 13 10 9 9 11 11 12 13 11 13 17 18 20 23 26 31 32 33 33 36 41 43 46 47 48 47 47
13 9 4 3 2 2 3 7 11 12 9 6 11 10 11 11 6 3 8 15 21 25 26 25 23 19 15 12 11 13 11 12 11 13 18 21 22 21 22 24 27 31 35 40 45 49 53 56 56 58 57 56 54 54
12 7 2 5 5 6 7 9 4 3 3 4 4 5 6 8 5 5 8 4 14 18 17 18 15 9 12 14 16 15 15 15 16 20 22 24 25 27 30 32 35 40 45 53 58 61 62 63 64 63 63 62 60 58
6 7 5 6 4 4 10 15 7 7 3 3 3 6 6 5 3 10 11 10 2 8 14 15 14 12 11 10 10 11 14 16 20 26 31 37 42 44 48 52 57 63 67 69 67 63 61 60 61 61 60 59 57 53
Wind_Direction_850mb
256 255 253 256 255 252 252 254 252 256 256 256 244 251 255 250 245 240 243 242 230 243 256 247 248 235 230 216 164 206 30 263 67 181 152 227 190 226 139 236 199 176 164 225 74 37 289 199 321 172 239 293 278 268
256 253 251 255 250 254 253 248 247 250 250 246 247 244 247 247 252 245 244 243 242 236 250 245 245 243 243 251 248 220 222 172 186 106 232 87 269 14 182 243 167 270 199 199 185 222 245 277 273 285 288 283 283 277
259 257 257 252 252 247 252 254 255 255 256 253 255 261 260 252 251 248 248 247 225 230 247 250 253 262 260 245 239 237 245 233 230 234 200 213 233 140 246 236 257 244 239 246 262 260 258 266 276 278 292 287 290 289
258 257 257 256 256 256 253 251 251 251 253 251 250 250 257 254 256 252 246 255 237 225 231 247 256 242 261 258 247 240 247 241 251 234 224 214 236 199 246 250 236 235 181 226 253 266 268 270 268 277 283 289 286 275
260 258 255 255 256 257 257 257 255 250 249 248 247 251 251 253 258 255 250 252 254 235 254 234 249 249 250 244 249 247 240 242 239 241 229 246 247 244 240 245 244 239 247 243 253 260 273 274 279 287 288 281 264 271
262 259 255 254 255 257 258 257 255 253 251 251 249 244 250 251 249 252 263 255 248 245 249 224 259 249 252 249 242 237 237 241 225 227 242 244 238 215 254 244 245 245 238 240 247 265 272 274 280 284 281 282 284 287
260 258 257 256 256 258 258 257 254 251 251 248 247 240 243 245 238 232 237 239 224 226 236 250 252 241 244 236 232 235 238 231 230 243 241 249 246 226 240 254 269 258 252 261 266 264 271 276 275 283 288 293 296 301
259 258 257 256 256 257 256 254 253 249 247 247 244 243 233 237 243 244 244 255 240 213 224 230 251 326 199 187 203 214 205 207 220 228 234 230 229 225 250 255 255 259 257 254 249 263 265 277 287 291 295 301 303 306
261 259 259 257 255 255 254 253 249 248 243 240 245 238 233 227 228 241 252 257 254 238 212 206 164 236 185 201 199 188 197 205 223 214 217 211 223 225 216 242 251 245 237 252 274 279 278 286 296 301 305 309 312 315
267 263 260 257 253 251 251 252 247 247 235 236 224 215 208 202 230 229 215 222 208 213 213 201 188 222 180 175 189 173 201 220 208 229 184 215 238 239 224 237 238 252 260 275 295 273 291 296 305 307 310 314 315 316
264 263 262 260 255 250 247 248 241 236 227 215 204 193 182 178 176 185 204 204 192 216 218 184 193 151 202 140 206 211 198 215 212 248 191 206 260 188 214 215 232 251 272 289 290 293 298 300 306 309 310 313 316 317
266 263 260 258 256 254 250 241 224 226 235 207 203 167 171 181 184 191 183 180 193 210 193 163 193 201 199 198 164 197 205 85 233 115 229 245 239 145 178 202 222 253 274 282 293 298 299 298 301 302 306 311 313 314
261 259 257 253 255 251 243 244 231 225 236 191 191 156 173 181 194 184 173 227 290 196 185 182 190 177 177 197 200 167 202 218 102 192 223 227 122 149 177 219 256 280 289 296 297 297 299 301 304 307 310 314 315 315
260 257 254 247 243 242 233 229 227 221 218 202 178 178 183 174 207 177 169 177 202 188 184 174 130 157 164 156 211 228 169 146 212 234 236 205 162 154 220 287 289 295 303 307 309 308 308 309 310 312 315 315 314 315
254 251 252 239 235 235 228 229 226 222 228 213 162 188 179 159 97 162 169 164 185 194 161 114 86 160 187 222 208 101 185 244 199 225 214 154 156 282 302 310 316 316 313 313 314 312 312 314 314 313 318 315 313 314
236 236 228 226 229 225 226 224 226 227 221 220 134 103 86 87 340 168 184 179 178 164 147 126 135 140 217 190 164 214 149 220 241 194 142 191 272 308 311 316 319 318 317 316 314 312 312 315 315 315 319 320 319 321
236 235 228 227 225 229 222 213 213 199 144 91 89 103 105 113 147 159 163 167 171 159 178 141 182 202 84 76 253 193 207 221 170 153 177 293 315 321 317 321 322 318 317 316 314 315 314 316 312 315 322 331 329 325
236 241 226 217 206 208 208 174 158 108 67 45 104 24 89 95 118 153 159 166 169 191 167 194 129 133 187 184 249 220 170 168 181 186 287 307 317 320 319 323 329 327 327 326 323 323 320 321 325 331 333 336 339 347
55 238 224 216 201 191 179 24 44 94 80 76 92 94 82 96 114 152 159 170 180 167 149 123 131 196 216 158 173 166 170 182 173 221 301 307 328 331 336 341 345 348 346 341 341 340 342 337 332 334 340 349 355 5
320 315 228 190 194 156 94 57 64 89 99 122 113 110 99 93 109 122 138 149 148 157 127 140 204 153 119 141 129 139 178 196 241 59 149 123 32 15 8 15 18 16 17 22 18 17 19 24 19 15 14 11 15 22
288 287 301 171 97 92 93 87 64 80 112 92 112 90 85 113 111 112 107 142 206 99 141 147 140 134 126 143 159 171 197 202 182 145 139 141 96 59 43 37 32 29 33 34 35 35 33 30 27 29 34 39 39 39
179 162 108 74 83 78 81 61 99 94 81 107 89 86 80 84 54 33 136 334 109 119 115 135 143 139 148 145 155 149 130 125 119 122 124 133 119 80 42 36 29 28 27 29 29 31 32 32 33 36 40 41 39 38
149 139 74 64 86 60 52 74 79 51 104 111 124 115 47 37 6 38 50 338 80 167 155 151 154 153 149 143 135 126 125 130 128 128 130 124 83 10 356 352 358 10 14 14 15 20 21 23 26 29 32 33 34 34
117 65 38 45 42 84 75 40 61 75 80 52 62 71 352 306 2 43 267 273 190 171 169 166 166 160 151 144 136 133 132 129 125 131 132 101 328 324 332 339 348 350 1 4 7 9 9 12 13 12 13 13 11 12
93 12 19 11 27 51 42 26 7 51 73 348 76 7 291 348 70 90 229 247 186 185 179 176 173 166 158 159 162 160 164 180 217 244 259 269 286 310 330 335 338 343 353 7 10 14 15 14 14 12 10 8 7 4
67 5 42 293 345 77 184 76 45 162 132 77 168 275 13 89 82 245 232 196 193 190 186 181 174 173 177 176 185 202 216 234 264 287 282 271 277 287 301 310 328 347 9 13 13 11 9 8 6 4 4 0 357 354
62 342 21 32 32 94 71 63 101 90 87 132 215 82 78 107 250 256 286 185 176 181 175 174 176 175 181 194 198 214 250 279 295 293 299 299 293 290 280 284 311 329 342 345 347 347 348 349 348 347 346 348 344 340
74 28 68 341 26 33 121 64 58 99 227 184 122 148 159 186 229 1 194 180 167 170 173 174 177 186 191 194 212 252 300 310 318 316 319 320 304 300 293 302 317 324 327 330 332 334 335 337 339 338 339 338 339 335
39 357 355 12 17 44 77 132 199 91 132 179 135 251 256 254 255 247 199 186 185 181 184 188 191 193 198 206 217 263 294 317 325 336 339 338 339 331 327 321 319 317 316 319 323 323 326 328 332 334 336 333 332 328
3 0 34 38 73 346 350 45 54 138 237 264 284 287 278 275 277 268 253 207 193 199 196 193 200 207 217 231 246 268 292 303 305 305 307 312 312 316 316 312 309 308 307 309 311 312 313 313 314 315 316 318 320 319
344 339 339 27 221 32 336 314 294 279 264 268 254 260 282 304 340 11 227 210 197 200 209 214 220 227 239 256 279 283 285 288 300 303 302 304 307 309 307 305 306 306 305 305 305 305 306 306 308 309 310 311 312 312
339 18 37 359 319 341 332 343 301 283 252 261 261 287 305 311 314 59 25 222 222 224 226 230 235 249 258 253 262 279 289 290 290 291 298 305 309 308 304 304 305 305 307 309 308 305 302 301 301 302 303 304 305 306
317 339 337 325 335 6 351 345 17 347 277 303 342 337 334 329 271 30 30 18 15 192 205 209 214 227 254 282 299 307 309 308 305 305 303 302 301 301 300 298 298 299 300 302 304 303 300 298 298 299 299 301 303 304